Погода в Клостерс-Зернойсе

Швейцария     46°52′48″N   9°52′48″E
темп.,
°C
ветер,
м/с
пор.,
м/с
влажн.,
%
обл.,
%
осадки,
мм/ч
давл.,
гПа
погр.,
м
5 августа, чт
чт523:00+6ссз2299100 9.1 1013195
02:00+5ююв2293100 20.9 1014103
05:00+5ссз1298100 1.1 1013117
08:00+6ссз129987 2.1 1013118
11:00+9ссз227830 0.3 1012613
14:00+11сз327384 1.4 1011949
17:00+12сз2270100 0.8 1011900
20:00+9ссз22847 1.1 101276
6 августа, пт
пт623:00+6всв019363 0.0 101310
02:00+5ююв1191100 0.0 101310
05:00+5ююв118877 0.0 101110
08:00+9вюв11715 0.0 1011117
11:00+13зсз225721 0.0 10101199
14:00+15зсз335310 0.1 10101503
17:00+16сз335068 0.0 10091410
20:00+11сз229013 0.6 101171
7 августа, сб
сб723:00+8ю119553 0.0 101210
02:00+9ююв328469 0.0 101220
05:00+8ююв438867 0.0 101231
08:00+11ююв447737 0.0 1011174
11:00+16ююв4557100 0.0 10081150
14:00+19ююв584829 0.0 10061908
17:00+18ю4552100 0.0 10061476
20:00+13ю2382100 1.1 100879
8 августа, вс
вс823:00+11ю119078 0.9 101158
02:00+9ссв129991 1.6 1012142
05:00+7ссз2297100 1.3 1013208
08:00+7с1195100 1.9 1014173
11:00+8с2291100 0.1 1014338
14:00+8сз3399100 1.4 1015363
17:00+6с3397100 7.8 1018389
20:00+5в129094 13.1 1021173
9 августа, пн
пн923:00+6в118688 0.0 102263
02:00+6ссв1189100 0.0 102231
05:00+5всв1192100 0.0 102210
08:00+7св1185100 0.0 1022175
11:00+8ссз2180100 0.0 1023501
14:00+10сз327397 0.1 1022908
17:00+10ссз227196 0.1 1023883
20:00+9ссз228322 0.2 102499